Regional Weather Roundup
Issued by NWS

Home | Current Version | Previous Version | Graphics & Text | Print | Product List | Glossary Off
Versions: 1 2 3 4 5 6 7 8 9 10 11 12 13 14 15 16 17 18 19 20 21 22 23 24 25 26 27 28 29 30 31 32 33 34 35 36 37 38 39 40 41 42 43 44 45 46 47 48 49 50

000
ASUS43 KFSD 241210
RWRSD

WEATHER ROUNDUP FOR SOUTH DAKOTA
NATIONAL WEATHER SERVICE SIOUX FALLS SD
600 AM CST WED JAN 24 2018

NOTE: "FAIR" INDICATES FEW OR NO CLOUDS BELOW 12,000 FEET WITH NO
SIGNIFICANT WEATHER AND/OR OBSTRUCTIONS TO VISIBILITY.


SDZ001>005-009-010-012>017-241300-
NORTHWEST AND NORTH CENTRAL SOUTH DAKOTA

CITY           SKY/WX    TMP DP  RH WIND       PRES   REMARKS
BUFFALO          N/A     22  12  65 E3        29.95S
FAITH            N/A     19  18  95 S13       30.05S WCI   6
MOBRIDGE       PTCLDY    17  13  84 SE6       30.06F WCI   9
$$

SDZ012>016-024>037-041>051-057-063-072>074-241300-
SOUTHWEST AND SOUTH CENTRAL SOUTH DAKOTA

CITY           SKY/WX    TMP DP  RH WIND       PRES   REMARKS
RAPID CTY ARPT CLEAR     14   9  80 NW3       30.03F
PIERRE         PTCLDY    22  19  89 S6        30.12F WCI  14
CUSTER         PTCLDY    22   9  57 W13       29.99F WCI  10
ELLSWORTH AFB  CLEAR     15  11  82 W7        30.02F WCI   6
PHILIP         CLEAR     16  14  92 CALM      30.10F
PINE RIDGE     CLEAR     15   9  76 W6        30.10F WCI   6
SPEARFISH        N/A     28   9  43 N5        30.01S WCI  23
WINNER         FAIR      24  15  68 SW5       30.16F WCI  18
$$

SDZ004>011-016>023-039-040-241300-
NORTHEAST SOUTH DAKOTA

CITY           SKY/WX    TMP DP  RH WIND       PRES   REMARKS
ABERDEEN       FOG       19  17  92 S6        30.17F VSB 1/4 WCI  11
WATERTOWN      FOG       17  17 100 S6        30.16S VSB 1/4 WCI   9
BROOKINGS      FOG       15  13  91 S3        30.20R VSB 1/4
SISSETON         N/A     19  18  95 SW8       30.18R WCI   9
$$

SDZ017-020-022-023-036>040-048>070-241300-
SOUTHEAST SOUTH DAKOTA

CITY           SKY/WX    TMP DP  RH WIND       PRES   REMARKS
SIOUX FALLS    FOG       17  15  92 SW5       30.22R VSB 1/2 WCI  10
HURON          CLEAR     11  10  96 SE3       30.19S
CHAMBERLAIN    PTCLDY    17  16  95 CALM      30.17F
MITCHELL       CLEAR     18  15  88 SW6       30.21S WCI  10
YANKTON        FOG        5   1  83 E3        30.24S VSB 1/4
$$

ABBREVIATIONS USED IN REMARKS
   TC - TEMPERATURE IN CELSIUS
  WCI - WIND CHILL INDEX
   HX - HEAT INDEX
  VSB - VISIBILITY





USA.gov is the U.S. government's official web portal to all federal, state and local government web resources and services.